User: anonymous   Login
Location: Unspecified
(0.0000°N, 0.0000°E)
Time: 21:34:57
(UTC+00:00)
Language:

RS-15 - Orbit

View from above orbital plane
View from above orbital plane
View from above satellite
View from above satellite

Ground track
Ground track

The orbit data is extracted from the following two-line orbital elements,

1 23439U 94085A   21124.97878540 -.00000037  00000-0  15882-3 0  9993
2 23439  64.8123  86.2691 0160009 342.9605  16.5983 11.27570946 85438
Epoch (UTC): 04 May 2021 23:29:27
Eccentricity: 0.0160009
inclination: 64.8123°
perigee height: 1888 km
apogee height: 2157 km
right ascension of ascending node: 86.2691°
argument of perigee: 342.9605°
revolutions per day: 11.27570946
mean anomaly at epoch: 16.5983°
orbit number at epoch: 8543

The dashed part of the orbit path shows where the satellite is in the earth's shadow,  

DLR